Location: Andershausen
(51.8462°N, 9.8595°E)
Time: 13:17:59
(UTC+00:00)

SL-08 R/B - Visible Passes

Search period start: 12 February 2026 00:00
Search period end: 22 February 2026 00:00
Orbit: 943 x 1007 km, 82.9° (Epoch: 10 February)

Date Brightness Start Highest point End Pass type
(mag) Time Alt. Az. Time Alt. Az. Time Alt. Az.
12 Feb 7.3 04:48:07 10° ESE 04:52:17 19° ENE 04:56:25 10° NE visible
12 Feb 4.6 17:20:19 10° N 17:26:32 86° W 17:32:38 10° S visible
12 Feb 7.2 19:07:10 10° NW 19:10:57 17° WNW 19:14:43 10° WSW visible
13 Feb 6.6 05:11:38 10° SE 05:17:00 30° E 05:22:21 10° NNE visible
13 Feb 5.4 17:45:38 10° NNW 17:51:36 53° W 17:57:28 10° SSW visible
14 Feb 5.7 05:35:51 10° SSE 05:41:53 48° E 05:47:53 10° NNE visible
14 Feb 6.3 18:11:08 10° NNW 18:16:29 32° W 18:21:47 10° SW visible
15 Feb 7.5 04:18:58 10° ESE 04:22:34 16° ENE 04:26:10 10° NE visible
15 Feb 4.8 06:00:35 10° S 06:06:56 78° E 06:13:13 10° NNE visible
15 Feb 7.1 18:37:00 10° NW 18:41:14 20° W 18:45:26 10° WSW visible
16 Feb 6.8 04:42:11 10° SE 04:47:15 26° E 04:52:17 10° NNE visible
16 Feb 5.1 17:15:43 10° NNW 17:21:45 61° W 17:27:43 10° S visible
16 Feb 7.7 19:03:56 10° NW 19:05:48 11° WNW 19:07:40 10° W visible
17 Feb 5.9 05:06:13 10° SSE 05:12:05 42° E 05:17:55 10° NNE visible
17 Feb 6.2 17:41:09 10° NNW 17:46:42 37° W 17:52:11 10° SSW visible
18 Feb 7.6 03:49:59 10° ESE 03:52:53 14° ENE 03:55:46 10° NE visible
18 Feb 5.0 05:30:49 10° S 05:37:05 68° E 05:43:18 10° NNE visible
18 Feb 7.0 18:06:52 10° NNW 18:11:29 23° W 18:16:03 10° SW visible
19 Feb 7.0 04:12:48 10° SE 04:17:31 23° E 04:22:11 10° NNE visible
19 Feb 7.5 18:33:18 10° NW 18:36:06 14° WNW 18:38:54 10° WSW visible
20 Feb 6.2 04:36:39 10° SSE 04:42:18 36° E 04:47:55 10° NNE visible
20 Feb 5.9 17:11:10 10° NNW 17:16:53 43° W 17:22:33 10° SSW visible
21 Feb 7.7 03:21:20 10° E 03:23:11 11° ENE 03:25:04 10° NE visible
21 Feb 5.2 05:01:05 10° S 05:07:15 59° E 05:13:22 10° NNE visible
21 Feb 6.9 17:36:48 10° NNW 17:41:44 26° W 17:46:37 10° SW visible
